sat.trackr.live / text

‹ back to catalog

STARLINK-32040

NORAD 60109 · 2024-117U

PAYLOAD ACTIVE UNKNOWN

§ Identity

Operator
Country
US
Launch date
2024-06-23
Launch site
AFETR
Launch vehicle
Mass (kg)
RCS (m²)

Purposes: comms

External: N2YO · Heavens-Above · Gunter

§ Orbital elements

Epoch: 2026-09-21T13:31:25.133376Z

Period
93.85 min
Inclination
53.1585°
Eccentricity
0.0001366
Mean motion
15.34389036 rev/d
Perigee alt
461.8 km
Apogee alt
463.7 km
Semi-major
6,840.9 km
B*
-2.4512e-5
RAAN
204.6188°
Arg perigee
87.7069°
Mean anomaly
272.4090°
Rev number
12,691

§ Raw data

STARLINK-320401 60109U 24117U   26264.56348534 -.00001204  00000+0 -24512-4 0  99952 60109  53.1585 204.6188 0001366  87.7069 272.4090 15.34389036126912

JSON: /api/v1/satellites/60109 · /tle

For live sub-satellite position, see the globe view (requires WebGL).

§ Visibility from observer

Set your observer location to see the next 7 days of passes ≥ 10°. The values pass through the URL so the page stays shareable.

No JS? Fill the form by hand. The geolocation button needs JavaScript.